timestamp,wind_dir_avg,wind_spd_max_dir,wind_spd_avg,wind_spd_gust,battery_voltage,lat,long
2017-09-16 00:00:00+00:00,295.0,305.0,3.68,4.38,12.7,47.59359,-54.27349
2017-09-16 00:10:00+00:00,297.0,286.0,3.12,3.96,12.6,47.59359,-54.27349
2017-09-16 00:20:00+00:00,306.0,316.0,4.34,5.35,12.7,47.59359,-54.27349
2017-09-16 00:30:00+00:00,26.0,28.0,1.79,2.17,12.7,47.59359,-54.27349
2017-09-16 00:40:00+00:00,171.0,155.0,1.32,1.57,12.7,47.59359,-54.27349
2017-09-16 00:50:00+00:00,292.0,303.0,1.19,1.34,12.7,47.59359,-54.27349
2017-09-16 01:00:00+00:00,299.0,303.0,2.88,3.68,12.6,47.59359,-54.27349
2017-09-16 01:10:00+00:00,282.0,282.0,3.05,3.66,12.6,47.59359,-54.27349
2017-09-16 01:20:00+00:00,265.0,262.0,3.71,4.44,12.7,47.59359,-54.27349
2017-09-16 01:30:00+00:00,231.0,216.0,1.47,2.46,12.7,47.59359,-54.27349
2017-09-16 01:40:00+00:00,299.0,296.0,1.93,2.82,12.7,47.59359,-54.27349
2017-09-16 01:50:00+00:00,126.0,123.0,1.69,2.1,12.7,47.59359,-54.27349
2017-09-16 02:00:00+00:00,220.0,222.0,3.3,3.99,12.6,47.59359,-54.27349
2017-09-16 02:10:00+00:00,268.0,271.0,3.32,3.67,12.6,47.59359,-54.27349
2017-09-16 02:20:00+00:00,282.0,288.0,3.16,3.55,12.6,47.59359,-54.27349
2017-09-16 02:30:00+00:00,229.0,216.0,2.06,2.63,12.6,47.59359,-54.27349
2017-09-16 02:40:00+00:00,252.0,250.0,2.03,2.19,12.7,47.59359,-54.27349
2017-09-16 02:50:00+00:00,220.0,220.0,1.91,2.1,12.7,47.59359,-54.27349
2017-09-16 03:00:00+00:00,237.0,242.0,1.14,1.35,12.6,47.59359,-54.27349
2017-09-16 03:10:00+00:00,325.0,319.0,1.3,1.49,12.6,47.59359,-54.27349
2017-09-16 03:20:00+00:00,344.0,353.0,1.76,2.19,12.6,47.59359,-54.27349
2017-09-16 03:30:00+00:00,28.0,22.0,1.43,1.88,12.6,47.59359,-54.27349
2017-09-16 03:40:00+00:00,7.0,9.0,2.55,2.75,12.6,47.59359,-54.27349
2017-09-16 03:50:00+00:00,12.0,12.0,2.24,2.57,12.6,47.59359,-54.27349
2017-09-16 04:00:00+00:00,1.0,1.0,2.39,2.6,12.6,47.59359,-54.27349
2017-09-16 04:10:00+00:00,0.0,2.0,2.52,3.46,12.6,47.59359,-54.27349
2017-09-16 04:20:00+00:00,3.0,2.0,2.75,3.02,12.6,47.59359,-54.27349
2017-09-16 04:30:00+00:00,3.0,4.0,2.52,2.65,12.6,47.59359,-54.27349
2017-09-16 04:40:00+00:00,0.0,359.0,2.8,2.92,12.6,47.59359,-54.27349
2017-09-16 04:50:00+00:00,356.0,355.0,3.09,3.28,12.6,47.59359,-54.27349
2017-09-16 05:00:00+00:00,351.0,351.0,3.32,3.67,12.6,47.59359,-54.27349
2017-09-16 05:10:00+00:00,356.0,356.0,3.16,3.59,12.6,47.59359,-54.27349
2017-09-16 05:20:00+00:00,0.0,357.0,2.68,2.87,12.6,47.59359,-54.27349
2017-09-16 05:30:00+00:00,351.0,359.0,1.14,1.38,12.6,47.59359,-54.27349
2017-09-16 05:40:00+00:00,9.0,5.0,0.5,0.6,12.6,47.59359,-54.27349
2017-09-16 05:50:00+00:00,189.0,181.0,0.53,0.79,12.6,47.59359,-54.27349
2017-09-16 06:00:00+00:00,238.0,248.0,0.36,0.51,12.6,47.59359,-54.27349
2017-09-16 06:10:00+00:00,262.0,263.0,0.95,1.1,12.6,47.59359,-54.27349
2017-09-16 06:20:00+00:00,269.0,269.0,1.28,1.66,12.6,47.59359,-54.27349
2017-09-16 06:30:00+00:00,273.0,275.0,1.17,1.41,12.6,47.59359,-54.27349
2017-09-16 06:40:00+00:00,302.0,299.0,1.59,1.79,12.6,47.59359,-54.27349
2017-09-16 06:50:00+00:00,273.0,277.0,1.93,2.22,12.6,47.59359,-54.27349
2017-09-16 07:00:00+00:00,246.0,247.0,1.87,2.29,12.6,47.59359,-54.27349
2017-09-16 07:10:00+00:00,240.0,237.0,1.87,2.43,12.5,47.59359,-54.27349
2017-09-16 07:20:00+00:00,237.0,239.0,1.86,2.3,12.6,47.59359,-54.27349
2017-09-16 07:30:00+00:00,248.0,248.0,2.76,3.27,12.6,47.59359,-54.27349
2017-09-16 07:40:00+00:00,205.0,207.0,3.69,4.32,12.6,47.59359,-54.27349
2017-09-16 07:50:00+00:00,169.0,169.0,2.4,2.66,12.6,47.59359,-54.27349
2017-09-16 08:00:00+00:00,170.0,170.0,2.34,2.58,12.6,47.59359,-54.27349
2017-09-16 08:10:00+00:00,194.0,192.0,1.73,1.94,12.5,47.59359,-54.27349
2017-09-16 08:20:00+00:00,214.0,216.0,1.84,2.09,12.6,47.59359,-54.27349
2017-09-16 08:30:00+00:00,227.0,231.0,1.18,1.61,12.6,47.59359,-54.27349
2017-09-16 08:40:00+00:00,239.0,241.0,2.46,2.81,12.6,47.59359,-54.27349
2017-09-16 08:50:00+00:00,245.0,250.0,2.7,3.0,12.6,47.59359,-54.27349
2017-09-16 09:00:00+00:00,263.0,260.0,3.58,3.86,12.6,47.59359,-54.27349
2017-09-16 09:10:00+00:00,272.0,272.0,2.93,3.5,12.5,47.59359,-54.27349
2017-09-16 09:20:00+00:00,258.0,262.0,3.8,4.27,12.6,47.59359,-54.27349
2017-09-16 09:30:00+00:00,256.0,262.0,4.74,5.22,12.6,47.59359,-54.27349
2017-09-16 09:40:00+00:00,262.0,261.0,4.33,4.73,12.6,47.59359,-54.27349
2017-09-16 09:50:00+00:00,250.0,250.0,4.73,5.41,12.6,47.59359,-54.27349
2017-09-16 10:00:00+00:00,245.0,241.0,4.23,5.18,12.7,47.59359,-54.27349
2017-09-16 10:10:00+00:00,245.0,247.0,5.44,6.08,12.7,47.59359,-54.27349
2017-09-16 10:20:00+00:00,241.0,241.0,5.71,6.62,13.0,47.59359,-54.27349
2017-09-16 10:30:00+00:00,245.0,251.0,5.49,6.23,13.4,47.59359,-54.27349
2017-09-16 10:40:00+00:00,239.0,244.0,5.24,6.13,13.7,47.59359,-54.27349
2017-09-16 10:50:00+00:00,238.0,237.0,5.73,6.54,13.9,47.59359,-54.27349
2017-09-16 11:00:00+00:00,238.0,245.0,4.69,5.55,13.7,47.59359,-54.27349
2017-09-16 11:10:00+00:00,254.0,256.0,5.66,6.42,13.8,47.59359,-54.27349
2017-09-16 11:20:00+00:00,251.0,252.0,5.61,6.25,13.7,47.59359,-54.27349
2017-09-16 11:30:00+00:00,261.0,262.0,5.01,5.47,13.7,47.59359,-54.27349
2017-09-16 11:40:00+00:00,252.0,253.0,4.92,5.49,13.8,47.59359,-54.27349
2017-09-16 11:50:00+00:00,235.0,234.0,5.33,5.95,13.8,47.59359,-54.27349
2017-09-16 12:00:00+00:00,235.0,234.0,6.16,6.88,13.7,47.59359,-54.27349
2017-09-16 12:10:00+00:00,249.0,250.0,5.87,6.53,13.7,47.59359,-54.27349
2017-09-16 12:20:00+00:00,246.0,250.0,5.6,6.66,13.8,47.59359,-54.27349
2017-09-16 12:30:00+00:00,245.0,243.0,5.98,7.06,13.8,47.59359,-54.27349
2017-09-16 12:40:00+00:00,249.0,247.0,5.8,6.49,13.8,47.59359,-54.27349
2017-09-16 12:50:00+00:00,252.0,254.0,5.58,6.59,13.8,47.59359,-54.27349
2017-09-16 13:00:00+00:00,265.0,263.0,5.19,6.05,13.8,47.59359,-54.27349
2017-09-16 13:10:00+00:00,259.0,257.0,5.97,7.46,13.8,47.59359,-54.27349
2017-09-16 13:20:00+00:00,263.0,277.0,4.7,5.44,13.8,47.59359,-54.27349
2017-09-16 13:30:00+00:00,267.0,258.0,5.9,7.19,13.8,47.59359,-54.27349
2017-09-16 13:40:00+00:00,275.0,274.0,6.74,7.97,13.8,47.59359,-54.27349
2017-09-16 13:50:00+00:00,295.0,294.0,7.4,9.49,13.8,47.59359,-54.27349
2017-09-16 14:00:00+00:00,283.0,288.0,7.19,8.8,13.8,47.59359,-54.27349
2017-09-16 14:10:00+00:00,289.0,289.0,8.61,9.46,13.8,47.59359,-54.27349
2017-09-16 14:20:00+00:00,270.0,268.0,6.98,7.82,13.8,47.59359,-54.27349
2017-09-16 14:30:00+00:00,270.0,270.0,7.37,8.09,13.8,47.59359,-54.27349
2017-09-16 14:40:00+00:00,281.0,278.0,7.43,8.51,13.9,47.59359,-54.27349
2017-09-16 14:50:00+00:00,285.0,273.0,7.41,9.24,13.9,47.59359,-54.27349
2017-09-16 15:00:00+00:00,282.0,278.0,8.31,9.13,13.8,47.59359,-54.27349
2017-09-16 15:10:00+00:00,298.0,292.0,5.91,6.96,13.8,47.59359,-54.27349
2017-09-16 15:20:00+00:00,299.0,303.0,5.08,5.79,13.9,47.59359,-54.27349
2017-09-16 15:30:00+00:00,296.0,293.0,5.6,6.56,13.8,47.59359,-54.27349
2017-09-16 15:40:00+00:00,301.0,311.0,5.53,6.43,13.6,47.59359,-54.27349
2017-09-16 15:50:00+00:00,297.0,298.0,5.34,5.67,13.8,47.59359,-54.27349
2017-09-16 16:00:00+00:00,287.0,278.0,5.93,7.0,13.8,47.59359,-54.27349
2017-09-16 16:10:00+00:00,281.0,284.0,9.07,9.98,13.7,47.59359,-54.27349
2017-09-16 16:20:00+00:00,269.0,269.0,7.21,7.95,13.8,47.59359,-54.27349
2017-09-16 16:30:00+00:00,253.0,251.0,7.03,8.03,13.8,47.59359,-54.27349
2017-09-16 16:40:00+00:00,250.0,252.0,8.98,9.85,13.6,47.59359,-54.27349
2017-09-16 16:50:00+00:00,252.0,258.0,7.16,7.86,13.7,47.59359,-54.27349
2017-09-16 17:00:00+00:00,248.0,257.0,7.43,9.66,13.8,47.59359,-54.27349
2017-09-16 17:10:00+00:00,258.0,260.0,6.95,7.67,13.7,47.59359,-54.27349
2017-09-16 17:20:00+00:00,259.0,262.0,7.27,8.47,13.7,47.59359,-54.27349
2017-09-16 17:30:00+00:00,266.0,267.0,8.95,9.9,13.6,47.59359,-54.27349
2017-09-16 17:40:00+00:00,256.0,253.0,8.06,8.97,13.8,47.59359,-54.27349
2017-09-16 17:50:00+00:00,260.0,264.0,6.58,7.39,14.2,47.59359,-54.27349
2017-09-16 18:00:00+00:00,262.0,260.0,7.54,8.41,13.9,47.59359,-54.27349
2017-09-16 18:10:00+00:00,260.0,262.0,8.17,8.81,13.7,47.59359,-54.27349
2017-09-16 18:20:00+00:00,280.0,284.0,5.66,6.13,14.1,47.59359,-54.27349
2017-09-16 18:30:00+00:00,302.0,303.0,5.05,5.51,14.1,47.59359,-54.27349
2017-09-16 18:40:00+00:00,312.0,305.0,5.01,5.79,14.0,47.59359,-54.27349
2017-09-16 18:50:00+00:00,305.0,305.0,4.43,5.01,13.8,47.59359,-54.27349
2017-09-16 19:00:00+00:00,301.0,303.0,4.61,5.09,13.7,47.59359,-54.27349
2017-09-16 19:10:00+00:00,229.0,227.0,6.43,7.57,13.6,47.59359,-54.27349
2017-09-16 19:20:00+00:00,233.0,235.0,6.58,8.36,13.7,47.59359,-54.27349
2017-09-16 19:30:00+00:00,223.0,221.0,6.26,7.24,13.7,47.59359,-54.27349
2017-09-16 19:40:00+00:00,237.0,235.0,6.57,7.85,13.8,47.59359,-54.27349
2017-09-16 19:50:00+00:00,220.0,218.0,8.06,9.03,13.8,47.59359,-54.27349
2017-09-16 20:00:00+00:00,239.0,247.0,6.06,7.96,13.6,47.59359,-54.27349
2017-09-16 20:10:00+00:00,223.0,231.0,7.51,8.7,13.4,47.59359,-54.27349
2017-09-16 20:20:00+00:00,220.0,225.0,7.72,8.85,13.4,47.59359,-54.27349
2017-09-16 20:30:00+00:00,228.0,230.0,6.23,6.76,13.4,47.59359,-54.27349
2017-09-16 20:40:00+00:00,228.0,227.0,6.22,6.62,13.4,47.59359,-54.27349
2017-09-16 20:50:00+00:00,224.0,227.0,5.96,6.75,13.4,47.59359,-54.27349
2017-09-16 21:00:00+00:00,226.0,230.0,5.61,6.23,13.3,47.59359,-54.27349
2017-09-16 21:10:00+00:00,227.0,228.0,4.82,5.77,13.1,47.59359,-54.27349
2017-09-16 21:20:00+00:00,217.0,217.0,5.5,6.36,13.1,47.59359,-54.27349
2017-09-16 21:30:00+00:00,225.0,223.0,6.36,6.98,13.0,47.59359,-54.27349
2017-09-16 21:40:00+00:00,225.0,230.0,6.23,6.83,13.0,47.59359,-54.27349
2017-09-16 21:50:00+00:00,250.0,252.0,5.42,5.97,13.0,47.59359,-54.27349
2017-09-16 22:00:00+00:00,258.0,258.0,4.89,5.42,12.9,47.59359,-54.27349
2017-09-16 22:10:00+00:00,266.0,271.0,6.48,7.52,12.7,47.59359,-54.27349
2017-09-16 22:20:00+00:00,267.0,265.0,6.0,6.89,12.8,47.59359,-54.27349
2017-09-16 22:30:00+00:00,260.0,263.0,5.72,6.6,12.8,47.59359,-54.27349
2017-09-16 22:40:00+00:00,250.0,251.0,5.63,6.14,12.8,47.59359,-54.27349
2017-09-16 22:50:00+00:00,243.0,242.0,5.36,6.01,12.8,47.59359,-54.27349
2017-09-16 23:00:00+00:00,246.0,242.0,4.87,5.48,12.7,47.59359,-54.27349
2017-09-16 23:10:00+00:00,244.0,241.0,4.24,5.07,12.6,47.59359,-54.27349
2017-09-16 23:20:00+00:00,243.0,241.0,2.91,3.34,12.7,47.59359,-54.27349
2017-09-16 23:30:00+00:00,275.0,285.0,2.24,3.26,12.7,47.59359,-54.27349
2017-09-16 23:40:00+00:00,321.0,318.0,5.19,5.91,12.7,47.59359,-54.27349
2017-09-16 23:50:00+00:00,49.0,52.0,9.93,13.45,12.7,47.59359,-54.27349
